Sunshine Coast Airport Observation History
Time Wind Speed Temp Pressure Rel. Hum Rain
24/08:00am NNW 9-11 kts 28.1°c 1013.1 hPa 79% n/a
24/07:30am NNW 7-10 kts 27.7°c 1013.0 hPa 86% n/a
24/07:00am NNW 6-8 kts 27.0°c 1012.7 hPa 87% n/a
24/06:30am NW 5-7 kts 26.0°c 1012.4 hPa 89% n/a
24/06:00am N 4-6 kts 25.1°c 1012.1 hPa 96% n/a
24/05:30am NNW 5-7 kts 24.5°c 1011.7 hPa 98% n/a
24/05:00am NNW 6-9 kts 24.5°c 1010.9 hPa 96% n/a
24/04:30am N 7-10 kts 24.8°c 1010.7 hPa 95% n/a
24/04:00am N 6-8 kts 24.7°c 1010.5 hPa 94% n/a
24/03:30am N 7-10 kts 25.0°c 1010.7 hPa 93% n/a
24/03:00am N 7-10 kts 25.0°c 1011.0 hPa 94% 0.0mm
24/02:30am NW 5-6 kts 24.7°c 1011.1 hPa 96% n/a
24/02:00am N 6-7 kts 24.7°c 1011.3 hPa 94% n/a
24/01:30am NW 5-6 kts 25.1°c 1011.8 hPa 92% n/a
24/01:00am N 8-11 kts 25.7°c 1011.7 hPa 86% n/a
24/12:30am N 10-13 kts 26.1°c 1011.7 hPa 87% n/a
24/12:00am N 9-13 kts 25.8°c 1011.9 hPa 89% n/a
Time Wind Speed Temp Pressure Rel. Hum Rain
23/11:30pm N 9-13 kts 25.9°c 1012.0 hPa 89% n/a
23/11:00pm N 9-13 kts 25.9°c 1012.3 hPa 88% n/a
23/10:30pm N 9-12 kts 26.0°c 1012.5 hPa 88% n/a
23/10:00pm N 11-15 kts 25.9°c 1012.3 hPa 91% n/a
23/09:30pm N 9-13 kts 25.8°c 1012.3 hPa 92% n/a
23/09:00pm N 9-13 kts 25.8°c 1012.1 hPa 92% 0.0mm
23/08:30pm NNE 9-13 kts 25.7°c 1011.5 hPa 92% n/a
23/08:00pm NNE 9-11 kts 25.8°c 1011.3 hPa 92% n/a
23/07:30pm N 7-10 kts 25.8°c 1011.3 hPa 92% n/a
23/07:00pm N 8-11 kts 25.7°c 1011.3 hPa 91% n/a
23/06:30pm NNE 10-14 kts 25.8°c 1010.7 hPa 90% n/a
23/06:00pm NNE 15-19 kts 25.9°c 1010.3 hPa 88% n/a
23/05:30pm NNE 12-18 kts 26.6°c 1009.9 hPa 83% n/a
23/05:00pm NNE 12-16 kts 27.0°c 1010.0 hPa 82% n/a
23/04:30pm N 13-18 kts 27.4°c 1010.0 hPa 83% n/a
23/04:00pm NNE 15-19 kts 27.5°c 1009.8 hPa 83% n/a
23/03:30pm NNE 16-21 kts 27.0°c 1009.8 hPa 85% n/a
23/03:00pm NNE 16-21 kts 27.5°c 1010.1 hPa 83% n/a
23/02:30pm NNE 15-19 kts 28.0°c 1010.8 hPa 82% n/a
23/02:00pm NNE 13-17 kts 27.2°c 1011.4 hPa 87% n/a
23/01:30pm NNE 15-18 kts 27.4°c 1011.5 hPa 85% n/a
23/01:00pm NNE 12-17 kts 27.1°c 1011.9 hPa 86% n/a
23/12:30pm NNE 11-15 kts 26.7°c 1012.1 hPa 90% n/a
23/12:00pm NNE 15-18 kts 28.8°c 1012.1 hPa 80% n/a
23/11:30am NNE 14-18 kts 28.3°c 1012.6 hPa 82% n/a
23/10:00am NNE 15-20 kts 27.2°c 1013.2 hPa 95% 0.6mm
23/09:57am NNE 15-19 kts 27.0°c 1013.2 hPa 95% 0.6mm
23/09:30am NNE 12-15 kts 26.2°c 1013.3 hPa 97% 0.6mm
23/09:15am N 11-14 kts 27.5°c 1013.3 hPa 94% 0.0mm
23/09:00am NNE 14-19 kts 27.6°c 1013.3 hPa 93% 2.2mm
23/08:30am NNE 15-19 kts 28.1°c 1013.2 hPa 93% 2.2mm
23/08:04am NNE 11-15 kts 27.4°c 1013.3 hPa 94% 2.2mm
23/08:00am NNE 11-14 kts 27.5°c 1013.3 hPa 96% 2.2mm
23/07:37am NNE 10-14 kts 26.9°c 1013.3 hPa 96% 2.2mm
23/07:30am NNE 11-15 kts 27.2°c 1013.2 hPa 97% 2.2mm
23/07:00am N 9-13 kts 26.1°c 1013.1 hPa 100% 2.2mm
23/06:30am N 11-14 kts 25.7°c 1012.5 hPa 100% 2.2mm
23/06:00am N 11-17 kts 25.4°c 1012.2 hPa n/a 2.2mm
23/05:37am N 10-15 kts 25.4°c 1011.9 hPa n/a 2.2mm
23/05:30am N 11-15 kts 25.4°c 1011.8 hPa n/a 2.2mm
23/05:11am N 10-17 kts 25.5°c 1011.5 hPa n/a 2.2mm
23/05:00am N 10-14 kts 25.5°c 1011.4 hPa 100% 2.2mm
23/04:32am N 10-13 kts 25.6°c 1011.1 hPa n/a 2.2mm
23/04:30am N 10-13 kts 25.6°c 1011.1 hPa n/a 2.2mm
23/04:13am N 9-13 kts 25.5°c 1011.1 hPa n/a 2.2mm
23/04:00am N 8-11 kts 25.5°c 1011.1 hPa n/a 2.2mm
23/03:55am N 8-10 kts 25.5°c 1011.1 hPa n/a 2.2mm
23/03:36am N 8-13 kts 25.5°c 1011.2 hPa n/a 2.2mm
23/03:30am N 9-13 kts 25.6°c 1011.2 hPa n/a 2.2mm
23/03:12am N 10-13 kts 25.5°c 1011.1 hPa n/a 2.2mm
23/03:00am N 10-13 kts 25.5°c 1011.2 hPa n/a 2.0mm
23/02:58am N 9-13 kts 25.5°c 1011.3 hPa n/a 2.0mm
23/02:30am N 8-11 kts 25.3°c 1011.5 hPa n/a 1.2mm
23/02:29am N 9-11 kts 25.3°c 1011.5 hPa n/a 1.2mm
23/02:11am NNE 11-15 kts 25.4°c 1011.5 hPa n/a 1.0mm
23/02:00am N 11-14 kts 25.8°c 1011.4 hPa n/a 0.2mm
23/01:44am N 9-11 kts 26.0°c 1011.6 hPa 100% 0.2mm
23/01:30am N 8-11 kts 26.1°c 1011.8 hPa 100% 0.2mm
23/01:24am N 8-11 kts 26.1°c 1011.9 hPa 100% 0.0mm
23/01:00am NNE 9-13 kts 26.1°c 1011.9 hPa 100% 0.0mm
23/12:44am NNE 11-13 kts 26.0°c 1012.1 hPa n/a 0.0mm
23/12:30am NNE 11-17 kts 26.2°c 1012.0 hPa n/a 0.0mm
23/12:00am N 10-16 kts 26.4°c 1012.2 hPa 100% 0.0mm
Time Wind Speed Temp Pressure Rel. Hum Rain
22/11:48pm N 11-16 kts 26.4°c 1012.4 hPa 100% 0.0mm
22/11:30pm N 13-17 kts 26.4°c 1012.3 hPa 100% 0.0mm
22/11:00pm N 10-15 kts 26.4°c 1012.7 hPa 100% 0.0mm
22/10:47pm N 9-12 kts 26.3°c 1012.9 hPa 100% 0.0mm
22/10:30pm N 9-15 kts 26.5°c 1012.9 hPa 100% 0.0mm
22/10:17pm N 9-13 kts 26.8°c 1013.1 hPa 100% 0.0mm
22/10:00pm N 10-14 kts 26.9°c 1013.1 hPa 99% 0.0mm
22/09:31pm N 9-15 kts 26.7°c 1012.8 hPa 99% 0.0mm
22/09:30pm N 10-15 kts 26.7°c 1012.8 hPa 99% 0.0mm
22/09:00pm N 10-13 kts 26.8°c 1012.5 hPa 99% 0.0mm
22/08:30pm N 12-17 kts 26.8°c 1011.8 hPa 99% 0.0mm
22/08:24pm N 11-17 kts 26.7°c 1011.7 hPa 99% 0.0mm
22/08:00pm N 12-17 kts 26.7°c 1011.4 hPa 87% 0.0mm
22/07:30pm N 11-15 kts 26.7°c 1011.4 hPa 99% 0.0mm
22/07:00pm NNE 13-17 kts 26.3°c 1010.5 hPa 100% 0.0mm
22/06:30pm NNE 13-17 kts 26.5°c 1009.9 hPa 99% 0.0mm
22/06:00pm NNE 13-19 kts 26.9°c 1009.5 hPa 98% 0.0mm
22/05:30pm NNE 13-17 kts 27.1°c 1009.2 hPa 98% 0.0mm
22/05:00pm NNE 13-17 kts 27.5°c 1009.1 hPa 96% 0.0mm
22/04:30pm NNE 14-18 kts 28.4°c 1008.9 hPa 94% 0.0mm
22/04:00pm NNE 14-18 kts 28.8°c 1008.8 hPa 93% 0.0mm
22/03:30pm NNE 15-18 kts 29.1°c 1009.0 hPa 93% 0.0mm
22/03:00pm NNE 14-18 kts 29.1°c 1009.6 hPa 92% 0.0mm
22/02:30pm NNE 14-18 kts 28.9°c 1010.0 hPa 91% 0.0mm
22/02:00pm NNE 13-16 kts 29.7°c 1010.4 hPa 92% 0.0mm
22/01:30pm NNE 16-20 kts 28.9°c 1010.6 hPa 93% 0.0mm
22/01:00pm NNE 14-17 kts 29.5°c 1011.0 hPa 92% 0.0mm
22/12:30pm NE 13-16 kts 28.7°c 1011.5 hPa 94% 0.0mm
22/12:00pm NE 12-15 kts 28.3°c 1011.8 hPa 91% 0.0mm
22/11:30am NE 11-14 kts 28.8°c 1012.1 hPa 90% 0.0mm
22/11:00am NE 11-14 kts 29.0°c 1012.2 hPa 92% 0.0mm
22/10:30am NE 10-13 kts 27.2°c 1012.4 hPa 90% 0.0mm
22/10:00am NE 9-11 kts 27.4°c 1012.4 hPa 89% 0.0mm
22/09:30am N 7-11 kts 29.2°c 1012.6 hPa 85% 0.0mm
22/09:00am NNE 5-7 kts 27.3°c 1012.6 hPa 89% 33.4mm
22/08:30am NNW 7-10 kts 27.4°c 1012.4 hPa 91% 33.4mm
22/08:00am NNW 6-9 kts 26.6°c 1012.2 hPa 92% 33.4mm
22/07:30am NW 4-6 kts 25.6°c 1012.1 hPa 82% 33.4mm
22/07:00am NW 4-5 kts 24.3°c 1012.0 hPa 85% 33.4mm
22/06:30am NW 5-7 kts 23.4°c 1011.5 hPa 88% 33.4mm
22/06:00am NW 6-7 kts 22.4°c 1011.1 hPa 91% 33.4mm
22/05:30am NW 6-7 kts 21.9°c 1010.7 hPa 92% 33.4mm
22/05:00am NW 5-6 kts 21.9°c 1010.2 hPa 92% 33.4mm
22/04:30am N 6-7 kts 21.5°c 1010.0 hPa 92% 33.4mm
22/04:00am NW 5-6 kts 21.5°c 1009.9 hPa 93% 33.4mm
22/03:30am WNW 4-5 kts 21.1°c 1009.4 hPa 92% 33.4mm
22/03:00am WNW 4-5 kts 21.7°c 1009.3 hPa 92% 33.4mm
22/02:30am WNW 5-7 kts 21.9°c 1009.3 hPa n/a 33.4mm
22/02:00am NW 5-6 kts 21.9°c 1009.6 hPa 100% 33.4mm
22/01:30am WNW 3-4 kts 22.4°c 1009.6 hPa 100% 33.4mm
22/01:00am S 2-4 kts 23.7°c 1009.6 hPa 95% 33.4mm
22/12:30am SSE 5-7 kts 24.1°c 1009.7 hPa 96% 33.4mm
22/12:00am ESE 5-7 kts 24.1°c 1010.0 hPa 94% 33.4mm